Proserpine Hamilton Isla, Australia

10:43 PM AEST on January 24, 2017 (GMT +1000)
Hamilton Island

Weather History for YBHM - June, 2013

Change the Weather History Date:

Sunday, June 30, 2013

  Actual Average Record
Temperature  
Mean Temperature 68 °F -  
Max Temperature 71 °F - - ()
Min Temperature 64 °F - - ()
Cooling Degree Days 2    
Growing Degree Days 18 (Base 50)    
Moisture  
Dew Point 58 °F    
Average Humidity 71    
Maximum Humidity 94    
Minimum Humidity 52    
Precipitation  
Precipitation 0.00 in - - ()
Sea Level Pressure  
Sea Level Pressure 30.04 in    
Wind  
Wind Speed 11 mph ()    
Max Wind Speed 25 mph    
Max Gust Speed -    
T = Trace of Precipitation, MM = Missing Value Source: Averaged Metar Reports

Daily Weather History Graph

Daily Weather History Graph

Search for Another Location

Airport or City:

Trip Planner

Search our weather history database for the weather conditions in past years. The results will help you decide how hot, cold, wet, or windy it might be!

Date:

Astronomy

Jun. 30, 2013 Rise Set
Actual Time 6:40 AM AEST 5:35 PM AEST
Civil Twilight 6:16 AM AEST 5:59 PM AEST
Nautical Twilight 5:48 AM AEST 6:26 PM AEST
Astronomical Twilight 5:21 AM AEST 6:54 PM AEST
Moon No Moon Rise 11:42 AM AEST (6/30)
Length of Visible Light 11h 42m
Length of Day
10h 54m
Waning Gibbous, 51% of the Moon is Illuminated
Jun 30
Waning Gibbous
Jun 30
Last Quarter
Jul 8
New
Jul 16
First Quarter
Jul 23
Full

Hourly Weather History & Observations

Time (AEST) Temp. Dew Point Humidity Pressure Visibility Wind Dir Wind Speed Gust Speed Precip Events Conditions
12:00 AM 66 °F 64 °F 92% 30.08 in - SSE 11.5 mph - -  
12:00 AM 66.2 °F 64.4 °F 94% 30.06 in - SSE 11.5 mph - N/A   Unknown
12:30 AM 66.2 °F 64.4 °F 94% 30.06 in - South 9.2 mph - N/A   Unknown
1:00 AM 66.2 °F 62.6 °F 88% 30.06 in - South 8.1 mph - N/A   Unknown
1:30 AM 66.2 °F 62.6 °F 88% 30.06 in - South 8.1 mph - N/A   Unknown
2:00 AM 66.2 °F 62.6 °F 88% 30.04 in - WSW 5.8 mph - N/A   Unknown
2:30 AM 66.2 °F 62.6 °F 88% 30.04 in - WSW 6.9 mph - N/A   Unknown
3:00 AM 65 °F 63 °F 90% 30.03 in - SW 5.8 mph - -  
3:00 AM 64.4 °F 62.6 °F 94% 30.01 in - SW 5.8 mph - N/A   Unknown
3:30 AM 64.4 °F 62.6 °F 94% 30.01 in - WSW 9.2 mph - N/A   Unknown
4:00 AM 64.4 °F 60.8 °F 88% 30.01 in - WSW 6.9 mph - N/A   Unknown
4:30 AM 64.4 °F 60.8 °F 88% 30.01 in - WSW 5.8 mph - N/A   Unknown
5:00 AM 66.2 °F 59.0 °F 78% 30.01 in - SW 5.8 mph - N/A   Unknown
5:30 AM 64.4 °F 59.0 °F 83% 30.04 in - SSW 5.8 mph - N/A   Unknown
6:00 AM 65 °F 58 °F 70% 30.04 in - SW 6.9 mph - -  
6:00 AM 64.4 °F 57.2 °F 77% 30.04 in - SW 6.9 mph - N/A   Unknown
6:30 AM 64.4 °F 57.2 °F 77% 30.04 in - SW 8.1 mph - N/A   Unknown
7:00 AM 66.2 °F 57.2 °F 73% 30.06 in - SSW 6.9 mph - N/A   Unknown
7:30 AM 66.2 °F 57.2 °F 73% 30.06 in - SSW 5.8 mph - N/A   Unknown
8:00 AM 66.2 °F 53.6 °F 64% 30.06 in - South 17.3 mph - N/A   Unknown
8:30 AM 66.2 °F 55.4 °F 68% 30.06 in - South 17.3 mph - N/A   Unknown
9:00 AM 67 °F 55 °F 56% 30.09 in - South 20.7 mph - -  
9:00 AM 66.2 °F 55.4 °F 68% 30.06 in - South 20.7 mph - N/A   Unknown
9:30 AM 68.0 °F 55.4 °F 64% 30.06 in - South 16.1 mph - N/A   Unknown
10:00 AM 68.0 °F 55.4 °F 64% 30.09 in - South 13.8 mph - N/A   Unknown
10:30 AM 68.0 °F 57.2 °F 68% 30.06 in - SSE 15.0 mph - N/A   Unknown
11:00 AM 69.8 °F 59.0 °F 68% 30.06 in - SSE 16.1 mph - N/A   Unknown
11:30 AM 69.8 °F 57.2 °F 64% 30.06 in - SSE 23.0 mph - N/A   Unknown
12:00 PM 70 °F 56 °F 53% 30.06 in - SSE 21.9 mph - -  
12:00 PM 69.8 °F 57.2 °F 64% 30.06 in - SSE 21.9 mph - N/A   Unknown
12:30 PM 71.6 °F 59.0 °F 64% 30.04 in - SE 21.9 mph - N/A   Unknown
1:00 PM 71.6 °F 57.2 °F 60% 30.01 in - SE 25.3 mph - N/A   Unknown
1:30 PM 71.6 °F 57.2 °F 60% 30.01 in - SE 20.7 mph - N/A   Unknown
2:00 PM 69.8 °F 55.4 °F 60% 30.01 in - SE 23.0 mph - N/A   Unknown
2:30 PM 71.6 °F 55.4 °F 57% 30.01 in - SE 20.7 mph - N/A   Unknown
3:00 PM 70 °F 56 °F 52% 30.00 in - SE 19.6 mph - -  
3:00 PM 69.8 °F 57.2 °F 64% 30.01 in - SE 19.6 mph - N/A   Unknown
3:30 PM 69.8 °F 57.2 °F 64% 30.01 in - ESE 16.1 mph - N/A   Unknown
4:00 PM 69.8 °F 57.2 °F 64% 30.01 in - ESE 15.0 mph - N/A   Unknown
4:30 PM 68.0 °F 57.2 °F 68% 30.01 in - ESE 12.7 mph - N/A   Unknown
5:00 PM 68.0 °F 59.0 °F 73% 30.01 in - ESE 13.8 mph - N/A   Unknown
5:30 PM 68.0 °F 59.0 °F 73% 30.01 in - SE 12.7 mph - N/A   Unknown
6:00 PM 67 °F 58 °F 64% 30.03 in - ESE 11.5 mph - -  
6:00 PM 68.0 °F 57.2 °F 68% 30.04 in - ESE 11.5 mph - N/A   Unknown
6:30 PM 66.2 °F 57.2 °F 73% 30.04 in - ESE 9.2 mph - N/A   Unknown
7:00 PM 66.2 °F 57.2 °F 73% 30.04 in - ESE 8.1 mph - N/A   Unknown
7:30 PM 66.2 °F 57.2 °F 73% 30.04 in - Calm Calm - N/A   Unknown
8:00 PM 68.0 °F 57.2 °F 68% 30.04 in - Calm Calm - N/A   Unknown
8:30 PM 68.0 °F 57.2 °F 68% 30.06 in - Calm Calm - N/A   Unknown
8:59 PM 69.8 °F 55.4 °F 60% 30.06 in - SSE 17.3 mph - N/A   Unknown
9:00 PM 69 °F 56 °F 55% 30.07 in - SSE 16.1 mph - -  
9:00 PM 69.8 °F 57.2 °F 64% 30.06 in - SSE 16.1 mph - N/A   Unknown
9:30 PM 68.0 °F 55.4 °F 64% 30.06 in - SSE 13.8 mph - N/A   Unknown
10:00 PM 68.0 °F 53.6 °F 60% 30.06 in - South 11.5 mph - N/A   Unknown
10:30 PM 68.0 °F 50.0 °F 52% 30.04 in - South 12.7 mph - N/A   Unknown
11:00 PM 68.0 °F 50.0 °F 52% 30.04 in - South 15.0 mph - N/A   Unknown
11:30 PM 68.0 °F 50.0 °F 52% 30.04 in - South 9.2 mph - N/A   Unknown